Terminal Aerodrome Forecast
Issued by NWS

Home | Current Version | Previous Version | Text Only | Print | Product List | Glossary On
Versions: 1 2 3 4 5 6 7 8 9 10 11 12 13 14 15 16
000
FTUS43 KDLH 300524
TAFHYR
TAF
KHYR 300524Z 3006/3106 25007KT P6SM SCT070
     FM301400 29012G20KT P6SM SKC
     FM301900 29013G25KT P6SM VCSH OVC080
     FM310000 27008KT P6SM SCT060=

USA.gov is the U.S. government's official web portal to all federal, state and local government web resources and services.